Home > Weather > Randers > Past weeks

Flag for Denmark Past Weather in Randers, Denmark — Yesterday and Last 2 Weeks

Now
59 °F

Passing clouds.


Feels Like: 58 °F
Forecast: 40 / 67 °F
Wind: 7 mph from East

Location: Tirstrup

Current Time: May 26, 2016 at 12:59:07 PM

Latest Report: May 26, 2016 at 12:20 PM


Visibility: N/A

Pressure: 30.07 "Hg

Humidity: 63%

Dew Point: 46 °F

Location of RandersLocation

Past Weather in Randers — Graph

°F

Randers Temperature Yesterday

Maximum temperature yesterday: 59 °F (at 12:20 PM)
Minimum temperature yesterday: 54 °F (at 11:20 PM)
Average temperature yesterday: 57 °F

High & Low Weather Summary for the Past Weeks

 TemperatureHumidityPressure
High75 °F (May 22, 3:20 PM)94% (May 21, 2:20 AM)30.07 "Hg (May 21, 2:20 AM)
Low41 °F (May 14, 4:20 AM)19% (May 12, 7:20 PM)29.59 "Hg (May 13, 2:50 PM)
Average55 °F68%29.84 "Hg
* Reported May 11 11:20 AM — May 26 11:20 AM, Randers, Weather by CustomWeather, © 2016

Note: Actual official high and low records may vary slightly from our data, if they occured in-between our weather recording intervals... More about our weather records

Advertising

Randers Weather History for the Previous 24 Hours

Scroll right to see more
 ConditionsComfort  
Time TempWeatherWind HumidityBarometerVisibility
11:20 AM
Thu, May 26
59 °FPartly sunny.8 mph68%30.07 "HgN/A
10:50 AM57 °FPartly sunny.10 mph72%30.07 "HgN/A
10:20 AM57 °FPartly sunny.9 mph67%30.07 "HgN/A
9:50 AM55 °FOvercast.12 mph77%30.07 "HgN/A
9:20 AM55 °FPartly sunny.12 mph77%30.07 "HgN/A
8:50 AM55 °FPartly sunny.13 mph77%30.07 "HgN/A
8:20 AM55 °FPartly sunny.12 mph77%30.07 "HgN/A
7:50 AM55 °FPartly sunny.12 mph82%30.07 "HgN/A
7:20 AM55 °FOvercast.9 mph77%30.07 "HgN/A
6:50 AM55 °FOvercast.9 mph77%30.07 "HgN/A
6:20 AM55 °FOvercast.9 mph77%30.07 "HgN/A
5:50 AM55 °FOvercast.10 mph77%30.04 "HgN/A
5:20 AM55 °FOvercast.9 mph77%30.04 "HgN/A
4:50 AM55 °FOvercast.9 mph72%30.04 "HgN/A
4:20 AM54 °FOvercast.8 mph77%30.04 "HgN/A
3:50 AM54 °FOvercast.9 mph77%30.04 "HgN/A
3:20 AM54 °FOvercast.10 mph77%30.04 "HgN/A
2:50 AM54 °FOvercast.10 mph77%30.04 "HgN/A
2:20 AM54 °FOvercast.9 mph77%30.04 "HgN/A
1:50 AM54 °FPassing clouds.8 mph77%30.04 "HgN/A
1:20 AM54 °FPassing clouds.8 mph72%30.04 "HgN/A
12:50 AM54 °FPassing clouds.10 mph72%30.04 "HgN/A
12:20 AM54 °FPartly cloudy.9 mph77%30.04 "HgN/A
11:50 PM
Wed, May 25
54 °FPassing clouds.9 mph77%30.04 "HgN/A
11:20 PM54 °FPartly cloudy.10 mph77%30.04 "HgN/A
10:50 PM55 °FPartly cloudy.9 mph77%30.04 "HgN/A
10:20 PM55 °FPartly sunny.8 mph77%30.04 "HgN/A
9:50 PM55 °FPartly sunny.9 mph77%30.04 "HgN/A
9:20 PM55 °FBroken clouds.9 mph77%30.04 "HgN/A
8:50 PM55 °FBroken clouds.9 mph77%30.04 "HgN/A
8:20 PM55 °FBroken clouds.12 mph77%30.01 "HgN/A
7:50 PM55 °FPartly sunny.12 mph77%30.01 "HgN/A
7:20 PM55 °FPartly sunny.12 mph77%30.01 "HgN/A
6:50 PM55 °FPartly sunny.13 mph77%30.01 "HgN/A
6:20 PM55 °FOvercast.14 mph77%30.01 "HgN/A
5:50 PM57 °FPartly sunny.12 mph77%30.01 "HgN/A
5:20 PM57 °FPartly sunny.13 mph77%30.01 "HgN/A
4:50 PM57 °FOvercast.13 mph77%30.01 "HgN/A
4:20 PM57 °FOvercast.13 mph77%30.01 "HgN/A
3:50 PM57 °FLow clouds.13 mph77%30.01 "HgN/A
3:20 PM57 °FLow clouds.13 mph77%30.01 "HgN/A
2:50 PM57 °FLow clouds.10 mph77%30.01 "HgN/A
2:20 PM59 °FLow clouds.12 mph77%30.01 "HgN/A
1:50 PM59 °FLow clouds.9 mph82%30.01 "HgN/A
1:20 PM59 °FPartly sunny.13 mph77%30.01 "HgN/A
12:50 PM59 °FPartly sunny.12 mph77%30.01 "HgN/A
12:20 PM59 °FLow clouds.13 mph77%30.01 "HgN/A
Weather by CustomWeather, © 2016

See weather overviewHow to use our weather pages